Location: ?????
(55.6500°N, 37.2500°E)
Time: 13:17:58
(UTC+00:00)

COSMOS 2406 - Pass Details

Date: 19 May 2025
Orbit: 845 x 859 km, 71.0° (Epoch: 20 June)

Event Time Altitude Azimuth Distance (km) Brightness Sun altitude
Exits shadow 21:59:08 - 240° (WSW) 2,966 5.7 -14.1°
Reaches altitude 10° 22:00:29 10° 244° (WSW) 2,475 5.3 -14.1°
Maximum altitude 22:05:56 45° 317° (NW) 1,151 4.2 -13.9°
Drops below altitude 10° 22:11:26 10° 29° (NNE) 2,496 6.9 -13.8°
Sets 22:14:01 0° 36° (NE) 3,438 7.6 -13.7°
